• In Deutschland
  • Länderverzeichnis
  • Für 7 Tage
  • Wassertemperatur
  • Satellitenkarten
  • Wetterkarte
  • Widgets
  • user-avatar
    Anmelden

    Stündliche Wetter Cobija

    Heute, 25 September, Montag

    Zeit Temperatur Niederschläge Wind Luftdruck Luftfeuchtigkeit
    00:00 +24°C° 0,5 mm 1 m/S 739 mmHg 97%
    01:00 +24°C° 0,5 mm 1 m/S 738 mmHg 97%
    02:00 +24°C° 0 mm 1 m/S 738 mmHg 97%
    03:00 +24°C° 0 mm 1 m/S 738 mmHg 97%
    04:00 +24°C° 0 mm 1 m/S 738 mmHg 98%
    05:00 +24°C° 0 mm 1 m/S 738 mmHg 96%
    06:00 +25°C° 0 mm 1 m/S 739 mmHg 93%
    07:00 +26°C° 0 mm 1 m/S 739 mmHg 91%
    08:00 +29°C° 0 mm 1 m/S 739 mmHg 77%
    09:00 +32°C° 0 mm 1 m/S 740 mmHg 62%
    10:00 +35°C° 0 mm 1 m/S 740 mmHg 48%
    11:00 +36°C° 0 mm 1 m/S 739 mmHg 44%
    12:00 +37°C° 0 mm 1 m/S 738 mmHg 39%
    13:00 +39°C° 0 mm 1 m/S 737 mmHg 35%
    14:00 +37°C° 0 mm 1 m/S 736 mmHg 38%
    15:00 +36°C° 0 mm 1 m/S 736 mmHg 41%
    16:00 +35°C° 0 mm 1 m/S 735 mmHg 44%
    17:00 +31°C° 0 mm 0 m/S 736 mmHg 50%
    18:00 +29°C° 0 mm 0 m/S 736 mmHg 56%
    19:00 +27°C° 0 mm 0 m/S 736 mmHg 62%
    20:00 +27°C° 0 mm 0 m/S 736 mmHg 65%
    21:00 +26°C° 0 mm 0 m/S 737 mmHg 68%
    22:00 +25°C° 0 mm 0 m/S 737 mmHg 72%
    23:00 +25°C° 0,1 mm 0 m/S 737 mmHg 75%

    Morgen, 26 September, Dienstag

    Zeit Temperatur Niederschläge Wind Luftdruck Luftfeuchtigkeit
    00:00 +24°C° 0,1 mm 0 m/S 737 mmHg 78%
    01:00 +24°C° 0,1 mm 0 m/S 736 mmHg 80%
    02:00 +23°C° 1 mm 0 m/S 737 mmHg 86%
    03:00 +22°C° 1 mm 0 m/S 737 mmHg 91%
    04:00 +22°C° 1 mm 0 m/S 737 mmHg 96%
    05:00 +22°C° 0,3 mm 0 m/S 738 mmHg 94%
    06:00 +25°C° 0,3 mm 1 m/S 738 mmHg 93%
    07:00 +26°C° 0,3 mm 1 m/S 739 mmHg 92%
    08:00 +28°C° 0,4 mm 1 m/S 739 mmHg 83%
    09:00 +28°C° 0,4 mm 0 m/S 740 mmHg 74%
    10:00 +30°C° 0,4 mm 0 m/S 740 mmHg 65%
    11:00 +32°C° 0,9 mm 1 m/S 739 mmHg 67%
    12:00 +31°C° 0,9 mm 1 m/S 738 mmHg 68%
    13:00 +31°C° 0,9 mm 1 m/S 737 mmHg 70%
    14:00 +31°C° 0 mm 1 m/S 736 mmHg 67%
    15:00 +31°C° 0 mm 1 m/S 735 mmHg 64%
    16:00 +32°C° 0 mm 1 m/S 735 mmHg 60%
    17:00 +28°C° 0,1 mm 0 m/S 735 mmHg 68%
    18:00 +26°C° 0,1 mm 0 m/S 735 mmHg 76%
    19:00 +24°C° 0,1 mm 0 m/S 736 mmHg 83%
    20:00 +24°C° 0,2 mm 0 m/S 736 mmHg 84%
    21:00 +23°C° 0,2 mm 0 m/S 736 mmHg 85%
    22:00 +23°C° 0,2 mm 0 m/S 737 mmHg 86%
    23:00 +23°C° 0,1 mm 0 m/S 737 mmHg 87%

    übermorgen, 27 September, Mittwoch

    Zeit Temperatur Niederschläge Wind Luftdruck Luftfeuchtigkeit
    00:00 +23°C° 0,1 mm 0 m/S 736 mmHg 88%
    01:00 +22°C° 0,1 mm 0 m/S 736 mmHg 88%
    02:00 +22°C° 0,5 mm 0 m/S 736 mmHg 91%
    03:00 +22°C° 0,5 mm 0 m/S 736 mmHg 93%
    04:00 +21°C° 0,5 mm 0 m/S 736 mmHg 95%
    05:00 +22°C° 0 mm 0 m/S 736 mmHg 93%
    06:00 +23°C° 0 mm 0 m/S 737 mmHg 90%
    07:00 +24°C° 0 mm 0 m/S 738 mmHg 87%
    08:00 +28°C° 0 mm 0 m/S 738 mmHg 72%
    09:00 +32°C° 0 mm 0 m/S 738 mmHg 56%
    10:00 +36°C° 0 mm 0 m/S 738 mmHg 41%
    11:00 +36°C° 0 mm 0 m/S 737 mmHg 39%
    12:00 +36°C° 0 mm 0 m/S 736 mmHg 37%
    13:00 +39°C° 0 mm 1 m/S 735 mmHg 36%
    14:00 +37°C° 0 mm 1 m/S 735 mmHg 39%
    15:00 +36°C° 0 mm 1 m/S 734 mmHg 43%
    16:00 +35°C° 0 mm 1 m/S 734 mmHg 46%
    17:00 +33°C° 0 mm 1 m/S 734 mmHg 53%
    18:00 +31°C° 0 mm 1 m/S 735 mmHg 60%
    19:00 +29°C° 0 mm 1 m/S 735 mmHg 67%
    20:00 +29°C° 0 mm 1 m/S 735 mmHg 69%
    21:00 +28°C° 0 mm 1 m/S 736 mmHg 72%
    22:00 +28°C° 0 mm 1 m/S 736 mmHg 74%
    23:00 +25°C° 0,1 mm 0 m/S 736 mmHg 76%

    28 September, Donnerstag

    Zeit Temperatur Niederschläge Wind Luftdruck Luftfeuchtigkeit
    00:00 +25°C° 0,1 mm 0 m/S 736 mmHg 78%
    01:00 +24°C° 0,1 mm 0 m/S 736 mmHg 80%
    02:00 +24°C° 0,9 mm 0 m/S 736 mmHg 85%
    03:00 +23°C° 0,9 mm 0 m/S 736 mmHg 91%
    04:00 +22°C° 0,9 mm 0 m/S 736 mmHg 97%
    05:00 +23°C° 0,2 mm 0 m/S 737 mmHg 95%
    06:00 +24°C° 0,2 mm 0 m/S 738 mmHg 93%
    07:00 +24°C° 0,2 mm 0 m/S 738 mmHg 91%
    08:00 +28°C° 0 mm 0 m/S 739 mmHg 77%
    09:00 +31°C° 0 mm 0 m/S 739 mmHg 62%
    10:00 +36°C° 0 mm 1 m/S 739 mmHg 47%
    11:00 +37°C° 0 mm 1 m/S 738 mmHg 43%
    12:00 +39°C° 0 mm 1 m/S 736 mmHg 40%
    13:00 +39°C° 0 mm 1 m/S 735 mmHg 36%
    14:00 +37°C° 0 mm 1 m/S 735 mmHg 40%
    15:00 +34°C° 0 mm 0 m/S 734 mmHg 45%
    16:00 +33°C° 0 mm 0 m/S 734 mmHg 50%
    17:00 +31°C° 0 mm 0 m/S 734 mmHg 54%
    18:00 +30°C° 0 mm 0 m/S 735 mmHg 58%
    19:00 +28°C° 0 mm 0 m/S 735 mmHg 62%
    20:00 +27°C° 0,1 mm 0 m/S 735 mmHg 66%
    21:00 +27°C° 0,1 mm 0 m/S 736 mmHg 69%
    22:00 +28°C° 0,1 mm 1 m/S 736 mmHg 73%
    23:00 +27°C° 0,1 mm 1 m/S 736 mmHg 76%

    29 September, Freitag

    Zeit Temperatur Niederschläge Wind Luftdruck Luftfeuchtigkeit
    00:00 +25°C° 0,1 mm 0 m/S 736 mmHg 80%
    01:00 +24°C° 0,1 mm 0 m/S 735 mmHg 83%
    02:00 +24°C° 1,1 mm 0 m/S 736 mmHg 87%
    03:00 +23°C° 1,1 mm 0 m/S 736 mmHg 92%
    04:00 +23°C° 1,1 mm 0 m/S 736 mmHg 96%
    05:00 +23°C° 1,6 mm 0 m/S 737 mmHg 96%
    06:00 +24°C° 1,6 mm 0 m/S 738 mmHg 96%
    07:00 +24°C° 1,6 mm 0 m/S 739 mmHg 96%
    08:00 +25°C° 2 mm 0 m/S 739 mmHg 92%
    09:00 +27°C° 2 mm 0 m/S 738 mmHg 88%
    10:00 +28°C° 2 mm 0 m/S 738 mmHg 85%
    11:00 +28°C° 2,3 mm 0 m/S 738 mmHg 82%
    12:00 +30°C° 2,3 mm 1 m/S 737 mmHg 80%
    13:00 +31°C° 2,3 mm 1 m/S 737 mmHg 77%
    14:00 +30°C° 0,2 mm 1 m/S 736 mmHg 76%
    15:00 +30°C° 0,2 mm 1 m/S 735 mmHg 75%
    16:00 +30°C° 0,2 mm 1 m/S 735 mmHg 74%
    17:00 +29°C° 0 mm 1 m/S 735 mmHg 79%
    18:00 +28°C° 0 mm 1 m/S 736 mmHg 85%
    19:00 +24°C° 0 mm 0 m/S 736 mmHg 90%
    20:00 +24°C° 0 mm 0 m/S 736 mmHg 90%
    21:00 +24°C° 0 mm 0 m/S 736 mmHg 90%
    22:00 +23°C° 0 mm 0 m/S 736 mmHg 90%
    23:00 +23°C° 0,2 mm 0 m/S 736 mmHg 90%

    30 September, Samstag

    Zeit Temperatur Niederschläge Wind Luftdruck Luftfeuchtigkeit
    00:00 +23°C° 0,2 mm 0 m/S 735 mmHg 90%
    01:00 +23°C° 0,2 mm 0 m/S 735 mmHg 91%
    02:00 +23°C° 0,1 mm 0 m/S 735 mmHg 91%
    03:00 +22°C° 0,1 mm 0 m/S 735 mmHg 90%
    04:00 +24°C° 0,1 mm 1 m/S 736 mmHg 90%
    05:00 +25°C° 0,2 mm 1 m/S 736 mmHg 88%
    06:00 +26°C° 0,2 mm 1 m/S 737 mmHg 87%
    07:00 +27°C° 0,2 mm 1 m/S 738 mmHg 85%
    08:00 +29°C° 0,4 mm 1 m/S 738 mmHg 76%
    09:00 +31°C° 0,4 mm 1 m/S 738 mmHg 68%
    10:00 +34°C° 0,4 mm 1 m/S 738 mmHg 60%
    11:00 +35°C° 0,2 mm 1 m/S 737 mmHg 53%
    12:00 +36°C° 0,2 mm 1 m/S 736 mmHg 47%
    13:00 +37°C° 0,2 mm 1 m/S 735 mmHg 41%
    14:00 +36°C° 0 mm 1 m/S 735 mmHg 42%
    15:00 +36°C° 0 mm 1 m/S 734 mmHg 44%
    16:00 +35°C° 0 mm 1 m/S 734 mmHg 46%
    17:00 +33°C° 0 mm 1 m/S 734 mmHg 53%
    18:00 +31°C° 0 mm 1 m/S 734 mmHg 60%
    19:00 +29°C° 0 mm 1 m/S 735 mmHg 68%
    20:00 +29°C° 0 mm 1 m/S 735 mmHg 70%
    21:00 +28°C° 0 mm 1 m/S 735 mmHg 72%
    22:00 +28°C° 0 mm 1 m/S 735 mmHg 75%
    23:00 +27°C° 0 mm 1 m/S 735 mmHg 76%
    Mehr zeigen